| time (UTC) | temp F | wind direction | speed knots | gust knots | rain 1hr in | rain 24hr in | rain mn in | humidity % | barometer mb |
| 20260506004539 | 34 | 324 | 0.0 | 0.0 | 0.00 | 0.00 | 0.00 | 72 | 1012.0 |
| 20260506003028 | 34 | 325 | 0.0 | 0.0 | 0.00 | 0.00 | 0.00 | 72 | 1012.1 |
| 20260506001526 | 35 | 325 | 0.0 | 0.0 | 0.00 | 0.00 | 0.00 | 70 | 1012.1 |
| 20260506000041 | 36 | 325 | 0.0 | 0.0 | 0.00 | 0.00 | 0.00 | 70 | 1012.2 |
| 20260505234523 | 36 | 325 | 0.0 | 0.0 | 0.00 | 0.00 | 0.00 | 70 | 1012.0 |
| 20260505233021 | 37 | 325 | 0.0 | 0.0 | 0.00 | 0.00 | 0.00 | 69 | 1012.0 |
| 20260505231519 | 38 | 325 | 0.0 | 0.0 | 0.00 | 0.00 | 0.00 | 67 | 1011.9 |
| 20260505230029 | 38 | 325 | 0.0 | 0.0 | 0.00 | 0.00 | 0.00 | 68 | 1011.9 |
| 20260505224614 | 39 | 325 | 0.0 | 0.0 | 0.00 | 0.00 | 0.00 | 66 | 1011.8 |
| 20260505223012 | 39 | 326 | 0.0 | 3.5 | 0.00 | 0.00 | 0.00 | 67 | 1011.8 |
| 20260505221509 | 39 | 317 | 0.0 | 1.7 | 0.00 | 0.00 | 0.00 | 71 | 1011.7 |
| 20260505220006 | 40 | 324 | 0.0 | 0.0 | 0.00 | 0.00 | 0.00 | 72 | 1011.8 |
| 20260505214505 | 41 | 325 | 0.0 | 2.6 | 0.00 | 0.00 | 0.00 | 71 | 1011.7 |
| 20260505213007 | 41 | 326 | 0.0 | 0.0 | 0.00 | 0.00 | 0.00 | 70 | 1011.5 |
| 20260505211503 | 42 | 322 | 0.0 | 2.6 | 0.00 | 0.00 | 0.00 | 71 | 1011.4 |
| 20260505210002 | 42 | 295 | 0.0 | 0.0 | 0.00 | 0.00 | 0.00 | 73 | 1011.3 |
| 20260505204613 | 43 | 295 | 0.0 | 0.0 | 0.00 | 0.00 | 0.00 | 76 | 1011.1 |
| 20260505203059 | 43 | 266 | 0.9 | 1.7 | 0.00 | 0.00 | 0.00 | 81 | 1011.0 |
| 20260505201557 | 44 | 226 | 0.0 | 1.7 | 0.00 | 0.00 | 0.00 | 81 | 1010.9 |
| 20260505200056 | 45 | 219 | 0.0 | 1.7 | 0.00 | 0.00 | 0.00 | 79 | 1010.9 |
| 20260505194556 | 46 | 216 | 0.0 | 3.5 | 0.00 | 0.00 | 0.00 | 78 | 1010.9 |
| 20260505193053 | 46 | 210 | 1.7 | 5.2 | 0.00 | 0.00 | 0.00 | 77 | 1010.8 |
| 20260505191557 | 47 | 214 | 1.7 | 3.5 | 0.00 | 0.00 | 0.00 | 75 | 1010.7 |
| 20260505190052 | 47 | 235 | 0.9 | 7.0 | 0.00 | 0.00 | 0.00 | 74 | 1010.6 |
| 20260505184550 | 47 | 224 | 2.6 | 7.0 | 0.00 | 0.00 | 0.00 | 74 | 1010.6 |
| 20260505183047 | 47 | 225 | 2.6 | 6.1 | 0.00 | 0.00 | 0.00 | 72 | 1010.5 |
| 20260505181611 | 47 | 224 | 3.5 | 8.7 | 0.00 | 0.00 | 0.00 | 72 | 1010.5 |
| 20260505180101 | 48 | 210 | 4.3 | 8.7 | 0.00 | 0.00 | 0.00 | 71 | 1010.4 |
| 20260505174546 | 48 | 210 | 2.6 | 8.7 | 0.00 | 0.00 | 0.00 | 70 | 1010.4 |
| 20260505173044 | 48 | 221 | 4.3 | 9.6 | 0.00 | 0.00 | 0.00 | 67 | 1010.4 |
| 20260505171544 | 48 | 225 | 1.7 | 7.8 | 0.00 | 0.00 | 0.00 | 66 | 1010.4 |
| 20260505170042 | 48 | 222 | 4.3 | 9.6 | 0.00 | 0.00 | 0.00 | 64 | 1010.4 |
| 20260505164541 | 48 | 216 | 3.5 | 10.4 | 0.00 | 0.00 | 0.00 | 63 | 1010.3 |
| 20260505163041 | 50 | 214 | 7.0 | 11.3 | 0.00 | 0.00 | 0.00 | 58 | 1010.3 |
| 20260505161539 | 50 | 235 | 4.3 | 14.8 | 0.00 | 0.00 | 0.00 | 50 | 1010.3 |
| 20260505153043 | 51 | 268 | 4.3 | 13.9 | 0.00 | 0.00 | 0.00 | 56 | 1010.2 |
| 20260505151536 | 51 | 210 | 5.2 | 16.5 | 0.00 | 0.00 | 0.00 | 55 | 1010.1 |
| 20260505124530 | 56 | 189 | 7.0 | 14.8 | 0.00 | 0.00 | 0.00 | 43 | 1009.6 |
| 20260505123043 | 56 | 286 | 2.6 | 8.7 | 0.00 | 0.00 | 0.00 | 36 | 1009.6 |
| 20260505121526 | 53 | 42 | 0.0 | 6.1 | 0.00 | 0.00 | 0.00 | 35 | 1009.8 |
| 20260505120025 | 53 | 47 | 3.5 | 7.8 | 0.00 | 0.00 | 0.00 | 30 | 1009.6 |
| 20260505114523 | 52 | 33 | 3.5 | 11.3 | 0.00 | 0.00 | 0.00 | 42 | 1009.7 |
| 20260505113022 | 50 | 60 | 4.3 | 14.8 | 0.00 | 0.00 | 0.00 | 44 | 1009.9 |
| 20260505111531 | 52 | 139 | 4.3 | 11.3 | 0.00 | 0.00 | 0.00 | 39 | 1009.9 |
| 20260505101518 | 54 | 285 | 0.0 | 4.3 | 0.00 | 0.00 | 0.00 | 40 | 1010.2 |
| 20260505100015 | 51 | 318 | 0.0 | 6.1 | 0.00 | 0.00 | 0.00 | 32 | 1010.3 |
| 20260505094515 | 51 | 287 | 0.9 | 6.1 | 0.00 | 0.00 | 0.00 | 32 | 1010.4 |
| 20260505093012 | 50 | 54 | 0.0 | 4.3 | 0.00 | 0.00 | 0.00 | 39 | 1010.3 |
| 20260505091510 | 50 | 316 | 0.9 | 5.2 | 0.00 | 0.00 | 0.00 | 37 | 1010.4 |
| 20260505090009 | 50 | 293 | 1.7 | 8.7 | 0.00 | 0.00 | 0.00 | 39 | 1010.4 |
| 20260505084507 | 49 | 50 | 0.9 | 5.2 | 0.00 | 0.00 | 0.00 | 36 | 1010.4 |
| 20260505083005 | 49 | 40 | 0.0 | 7.0 | 0.00 | 0.00 | 0.00 | 40 | 1010.3 |
| 20260505081504 | 49 | 44 | 0.9 | 6.1 | 0.00 | 0.00 | 0.00 | 39 | 1010.4 |
| 20260505080002 | 48 | 296 | 0.0 | 10.4 | 0.00 | 0.00 | 0.00 | 42 | 1010.3 |
| 20260505074559 | 48 | 331 | 1.7 | 7.0 | 0.00 | 0.00 | 0.00 | 39 | 1010.2 |
| 20260505073101 | 47 | 48 | 0.9 | 9.6 | 0.00 | 0.00 | 0.00 | 41 | 1010.2 |
| 20260505071555 | 46 | 336 | 1.7 | 8.7 | 0.00 | 0.00 | 0.00 | 43 | 1010.1 |
| 20260505070100 | 46 | 24 | 2.6 | 6.1 | 0.00 | 0.00 | 0.00 | 44 | 1010.0 |
| 20260505064631 | 45 | 307 | 2.6 | 8.7 | 0.00 | 0.00 | 0.00 | 46 | 1009.8 |
| 20260505063052 | 45 | 315 | 0.0 | 4.3 | 0.00 | 0.00 | 0.00 | 48 | 1009.9 |
| 20260505061551 | 44 | 341 | 0.0 | 8.7 | 0.00 | 0.00 | 0.00 | 49 | 1010.1 |
| 20260505060049 | 44 | 49 | 0.9 | 7.8 | 0.00 | 0.00 | 0.00 | 50 | 1010.0 |
| 20260505054551 | 43 | 27 | 2.6 | 8.7 | 0.00 | 0.00 | 0.00 | 50 | 1010.0 |
| 20260505053047 | 43 | 308 | 2.6 | 9.6 | 0.00 | 0.00 | 0.00 | 52 | 1010.0 |
| 20260505051545 | 42 | 254 | 0.0 | 6.1 | 0.00 | 0.00 | 0.00 | 54 | 1009.9 |
| 20260505041541 | 39 | 297 | 1.7 | 7.0 | 0.00 | 0.00 | 0.00 | 61 | 1009.7 |
| 20260505040039 | 38 | 284 | 0.9 | 4.3 | 0.00 | 0.00 | 0.00 | 62 | 1009.6 |
| 20260505034545 | 37 | 317 | 0.9 | 3.5 | 0.00 | 0.00 | 0.00 | 63 | 1009.5 |
| 20260505033036 | 37 | 303 | 0.0 | 5.2 | 0.00 | 0.00 | 0.00 | 62 | 1009.4 |
| 20260505031534 | 38 | 316 | 0.9 | 3.5 | 0.00 | 0.00 | 0.00 | 61 | 1009.4 |
| 20260505030044 | 38 | 312 | 0.9 | 4.3 | 0.00 | 0.00 | 0.00 | 60 | 1009.3 |
| 20260505024532 | 39 | 296 | 0.0 | 6.1 | 0.00 | 0.00 | 0.00 | 59 | 1009.2 |
| 20260505023039 | 38 | 281 | 1.7 | 6.1 | 0.00 | 0.00 | 0.00 | 61 | 1009.2 |
| 20260505021532 | 38 | 289 | 0.9 | 5.2 | 0.00 | 0.00 | 0.00 | 62 | 1009.3 |
| 20260505020029 | 38 | 293 | 1.7 | 5.2 | 0.00 | 0.00 | 0.00 | 62 | 1009.2 |
| 20260505014535 | 38 | 293 | 1.7 | 3.5 | 0.00 | 0.00 | 0.00 | 61 | 1009.1 |
| 20260505013025 | 38 | 291 | 0.9 | 2.6 | 0.00 | 0.00 | 0.00 | 62 | 1008.9 |
| 20260505011524 | 38 | 288 | 1.7 | 3.5 | 0.00 | 0.00 | 0.00 | 60 | 1008.9 |
| 20260505010020 | 39 | 334 | 0.0 | 0.0 | 0.00 | 0.00 | 0.00 | 61 | 1008.8 |